Weather History for KFAM - February, 2013

Change the Weather History Date:

Friday, February 1, 2013

  Actual Average Record
Temperature  
Mean Temperature 18 °F -  
Max Temperature 28 °F 42 °F 62 °F (2006)
Min Temperature 8 °F 25 °F 8 °F (2013)
Degree Days  
Heating Degree Days 47    
Moisture  
Dew Point 4 °F    
Average Humidity 52    
Maximum Humidity 73    
Minimum Humidity 34    
Precipitation  
Precipitation 0.00 in - - ()
Sea Level Pressure  
Sea Level Pressure 30.37 in    
Wind  
Wind Speed 7 mph (SW)    
Max Wind Speed 14 mph    
Max Gust Speed 24 mph    
Visibility 10 miles    
Events      
Averages and records for this station are not official NWS values.
T = Trace of Precipitation, MM = Missing Value Source: NWS Daily Summary

Daily Weather History Graph

Daily Weather History Graph

Search for Another Location

Airport or City:

Trip Planner

Search our weather history database for the weather conditions in past years. The results will help you decide how hot, cold, wet, or windy it might be!

Date:

Astronomy

Feb. 01, 2013 Rise Set
Actual Time 7:05 AM CST 5:25 PM CST
Civil Twilight 6:37 AM CST 5:53 PM CST
Nautical Twilight 6:06 AM CST 6:24 PM CST
Astronomical Twilight 5:35 AM CST 6:55 PM CST
Moon 11:25 PM CST (2/1) 9:46 AM CST (2/1)
Length of Visible Light 11h 15m
Length of Day
10h 20m
Waning Gibbous, 70% of the Moon is Illuminated
Feb 1
Waning Gibbous
Feb 3
Last Quarter
Feb 10
New
Feb 17
First Quarter
Feb 25
Full

Hourly Weather History & Observations

Time (CST) Temp. Windchill Dew Point Humidity Pressure Visibility Wind Dir Wind Speed Gust Speed Precip Events Conditions
12:15 AM 12.2 °F 0.7 °F 1.4 °F 62% 30.36 in 10.0 mi West 8.1 mph - N/A   Clear
12:35 AM 12.2 °F -2.5 °F 1.4 °F 62% 30.37 in 10.0 mi WNW 12.7 mph 24.2 mph N/A   Clear
12:55 AM 12.2 °F -0.2 °F -0.4 °F 57% 30.38 in 10.0 mi West 9.2 mph 17.3 mph N/A   Clear
1:15 AM 10.4 °F -3.3 °F -0.4 °F 62% 30.37 in 10.0 mi WNW 10.4 mph - N/A   Clear
1:35 AM 10.4 °F -3.3 °F -2.2 °F 57% 30.37 in 10.0 mi NW 10.4 mph 17.3 mph N/A   Clear
1:55 AM 10.4 °F -2.4 °F -2.2 °F 57% 30.38 in 10.0 mi NW 9.2 mph - N/A   Clear
2:15 AM 10.4 °F 0.8 °F -0.4 °F 62% 30.38 in 10.0 mi WNW 5.8 mph - N/A   Clear
2:35 AM 10.4 °F -0.4 °F -0.4 °F 62% 30.38 in 10.0 mi WNW 6.9 mph - N/A   Clear
2:55 AM 10.4 °F -2.4 °F 1.4 °F 67% 30.39 in 10.0 mi WNW 9.2 mph - N/A   Clear
3:15 AM 10.4 °F -2.4 °F -0.4 °F 62% 30.38 in 10.0 mi NW 9.2 mph - N/A   Clear
3:35 AM 10.4 °F -3.3 °F -0.4 °F 62% 30.39 in 10.0 mi NW 10.4 mph - N/A   Clear
3:55 AM 8.6 °F -2.6 °F -0.4 °F 67% 30.39 in 10.0 mi NW 6.9 mph - N/A   Clear
4:15 AM 8.6 °F -3.7 °F -0.4 °F 67% 30.39 in 10.0 mi NW 8.1 mph - N/A   Clear
4:35 AM 8.6 °F -2.6 °F -0.4 °F 67% 30.40 in 10.0 mi WNW 6.9 mph - N/A   Clear
5:15 AM 8.6 °F -2.6 °F -0.4 °F 67% 30.41 in 10.0 mi WNW 6.9 mph - N/A   Clear
5:35 AM 8.6 °F -1.3 °F -0.4 °F 67% 30.42 in 10.0 mi WNW 5.8 mph - N/A   Clear
5:55 AM 8.6 °F 2.0 °F -2.2 °F 62% 30.42 in 10.0 mi West 3.5 mph - N/A   Clear
6:15 AM 8.6 °F 0.1 °F -0.4 °F 67% 30.42 in 10.0 mi WNW 4.6 mph - N/A   Clear
6:35 AM 8.6 °F 2.0 °F -0.4 °F 67% 30.43 in 10.0 mi WNW 3.5 mph - N/A   Clear
7:15 AM 8.6 °F - 1.4 °F 73% 30.43 in 10.0 mi Calm Calm - N/A   Clear
7:35 AM 8.6 °F -1.3 °F 1.4 °F 73% 30.44 in 10.0 mi WNW 5.8 mph - N/A   Clear
8:15 AM 8.6 °F -2.6 °F 1.4 °F 73% 30.47 in 10.0 mi West 6.9 mph - N/A   Clear
8:35 AM 10.4 °F -0.4 °F 1.4 °F 67% 30.48 in 10.0 mi West 6.9 mph - N/A   Clear
8:55 AM 10.4 °F 2.2 °F 1.4 °F 67% 30.48 in 10.0 mi West 4.6 mph - N/A   Clear
9:15 AM 12.2 °F 2.9 °F 1.4 °F 62% 30.48 in 10.0 mi NNW 5.8 mph - N/A   Clear
9:35 AM 12.2 °F 4.3 °F -0.4 °F 57% 30.48 in 10.0 mi WNW 4.6 mph - N/A   Clear
9:55 AM 14.0 °F 3.9 °F 1.4 °F 57% 30.48 in 10.0 mi West 6.9 mph - N/A   Clear
10:15 AM 15.8 °F - 1.4 °F 53% 30.49 in 10.0 mi Calm Calm - N/A   Clear
10:35 AM 15.8 °F - 1.4 °F 53% 30.49 in 10.0 mi Calm Calm - N/A   Clear
10:55 AM 17.6 °F 10.7 °F 3.2 °F 53% 30.48 in 10.0 mi South 4.6 mph - N/A   Clear
11:15 AM 17.6 °F 10.7 °F 1.4 °F 49% 30.46 in 10.0 mi South 4.6 mph - N/A   Clear
11:35 AM 19.4 °F - 1.4 °F 46% 30.46 in 10.0 mi Calm Calm - N/A   Clear
11:55 AM 19.4 °F 14.3 °F 1.4 °F 46% 30.45 in 10.0 mi South 3.5 mph - N/A   Clear
12:15 PM 21.2 °F 13.6 °F 3.2 °F 46% 30.44 in 10.0 mi West 5.8 mph - N/A   Clear
12:35 PM 23.0 °F 18.4 °F 3.2 °F 43% 30.43 in 10.0 mi SSW 3.5 mph - N/A   Clear
12:55 PM 24.8 °F 19.1 °F 1.4 °F 36% 30.41 in 10.0 mi WNW 4.6 mph - N/A   Clear
1:15 PM 24.8 °F - 1.4 °F 36% 30.40 in 10.0 mi Calm Calm - N/A   Clear
1:35 PM 24.8 °F 19.1 °F 3.2 °F 40% 30.38 in 10.0 mi SSW 4.6 mph - N/A   Clear
1:55 PM 26.6 °F - 1.4 °F 34% 30.38 in 10.0 mi Calm Calm - N/A   Clear
2:15 PM 26.6 °F 22.6 °F 3.2 °F 37% 30.38 in 10.0 mi West 3.5 mph - N/A   Clear
2:35 PM 28.4 °F 21.2 °F 3.2 °F 34% 30.38 in 10.0 mi SW 6.9 mph - N/A   Clear
2:55 PM 28.4 °F 22.2 °F 3.2 °F 34% 30.37 in 10.0 mi South 5.8 mph - N/A   Clear
3:15 PM 28.4 °F 21.2 °F 6.8 °F 40% 30.37 in 10.0 mi SSW 6.9 mph - N/A   Clear
3:35 PM 28.4 °F 21.2 °F 6.8 °F 40% 30.36 in 10.0 mi South 6.9 mph - N/A   Clear
3:55 PM 28.4 °F 21.2 °F 5.0 °F 37% 30.34 in 10.0 mi SSE 6.9 mph - N/A   Clear
4:15 PM 26.6 °F 19.1 °F 6.8 °F 43% 30.34 in 10.0 mi SSW 6.9 mph - N/A   Clear
4:35 PM 28.4 °F 19.1 °F 6.8 °F 40% 30.34 in 10.0 mi South 10.4 mph - N/A   Clear
4:55 PM 26.6 °F 17.5 °F 5.0 °F 40% 30.34 in 10.0 mi SSW 9.2 mph - N/A   Clear
5:15 PM 26.6 °F 20.0 °F 6.8 °F 43% 30.33 in 10.0 mi South 5.8 mph - N/A   Clear
5:35 PM 26.6 °F 18.2 °F 6.8 °F 43% 30.33 in 10.0 mi South 8.1 mph - N/A   Clear
5:55 PM 26.6 °F 18.2 °F 6.8 °F 43% 30.32 in 10.0 mi South 8.1 mph - N/A   Clear
6:15 PM 26.6 °F 18.2 °F 6.8 °F 43% 30.32 in 10.0 mi South 8.1 mph - N/A   Partly Cloudy
6:35 PM 26.6 °F 19.1 °F 8.6 °F 47% 30.32 in 10.0 mi South 6.9 mph - N/A   Scattered Clouds
6:55 PM 26.6 °F 19.1 °F 6.8 °F 43% 30.31 in 10.0 mi SSE 6.9 mph - N/A   Clear
7:15 PM 26.6 °F 19.1 °F 6.8 °F 43% 30.30 in 10.0 mi South 6.9 mph - N/A   Clear
7:35 PM 26.6 °F 16.8 °F 6.8 °F 43% 30.30 in 10.0 mi South 10.4 mph - N/A   Clear
7:55 PM 26.6 °F 17.5 °F 6.8 °F 43% 30.29 in 10.0 mi South 9.2 mph - N/A   Clear
8:15 PM 26.6 °F 15.2 °F 6.8 °F 43% 30.28 in 10.0 mi South 13.8 mph - N/A   Clear
8:35 PM 26.6 °F 15.7 °F 8.6 °F 47% 30.27 in 10.0 mi SSE 12.7 mph - N/A   Partly Cloudy
8:55 PM 24.8 °F 14.0 °F 8.6 °F 50% 30.28 in 10.0 mi South 11.5 mph - N/A   Scattered Clouds
9:15 PM 24.8 °F 16.1 °F 8.6 °F 50% 30.28 in 10.0 mi South 8.1 mph - N/A   Mostly Cloudy
9:35 PM 24.8 °F 14.6 °F 8.6 °F 50% 30.28 in 10.0 mi South 10.4 mph - N/A   Mostly Cloudy
9:55 PM 24.8 °F 14.0 °F 8.6 °F 50% 30.28 in 10.0 mi South 11.5 mph - N/A   Overcast
10:15 PM 24.8 °F 15.3 °F 8.6 °F 50% 30.27 in 10.0 mi South 9.2 mph - N/A   Overcast
10:35 PM 24.8 °F 14.6 °F 10.4 °F 54% 30.28 in 10.0 mi South 10.4 mph - N/A   Mostly Cloudy
10:55 PM 24.8 °F 13.4 °F 10.4 °F 54% 30.28 in 10.0 mi South 12.7 mph - N/A   Mostly Cloudy
11:15 PM 24.8 °F 14.0 °F 10.4 °F 54% 30.27 in 10.0 mi South 11.5 mph - N/A   Mostly Cloudy
11:35 PM 24.8 °F 16.1 °F 10.4 °F 54% 30.25 in 10.0 mi South 8.1 mph - N/A   Overcast
11:55 PM 24.8 °F 15.3 °F 12.2 °F 59% 30.24 in 10.0 mi SSE 9.2 mph - N/A   Overcast